KK4XZ Weather Reports


Display with metric or nautical units.
time (UTC)temp
F
wind
direction
speed
MPH
gust
MPH
rain 1hr
in
rain 24hr
in
rain mn
in
humidity
%
barometer
mb
20260904102523 77 140 8.0 10.0 0.00 0.00 0.00 96 1016.0
20260904101517 77 130 8.0 9.0 0.00 0.00 0.00 96 1015.8
20260904100533 77 135 8.0 10.0 0.00 0.00 0.00 96 1015.7
20260904095528 77 128 7.0 10.0 0.00 0.00 0.00 96 1015.6
20260904094523 78 138 9.0 10.0 0.00 0.00 0.00 96 1015.7
20260904093518 78 141 8.0 10.0 0.00 0.00 0.00 95 1015.7
20260904092533 78 137 9.0 10.0 0.00 0.00 0.00 95 1015.6
20260904091529 78 133 7.0 9.0 0.00 0.00 0.00 95 1015.5
20260904090523 78 127 7.0 9.0 0.00 0.00 0.00 95 1015.5
20260904085518 78 136 8.0 10.0 0.00 0.00 0.00 95 1015.4
20260904084533 78 136 8.0 10.0 0.00 0.00 0.00 95 1015.4
20260904083528 78 141 9.0 11.0 0.00 0.00 0.00 95 1015.3
20260904082523 78 135 8.0 10.0 0.00 0.00 0.00 95 1015.3
20260904081518 78 123 6.0 9.0 0.00 0.00 0.00 94 1015.4
20260904080533 78 137 8.0 11.0 0.00 0.00 0.00 94 1015.5
20260904075528 79 138 8.0 10.0 0.00 0.00 0.00 94 1015.4
20260904074523 79 138 8.0 9.0 0.00 0.00 0.00 93 1015.5
20260904073518 79 136 8.0 9.0 0.00 0.00 0.00 93 1015.6
20260904072534 79 137 8.0 9.0 0.00 0.00 0.00 93 1015.7
20260904071529 79 136 8.0 9.0 0.00 0.00 0.00 93 1015.7
20260904070523 79 135 8.0 9.0 0.00 0.00 0.00 92 1015.7
20260904065519 80 136 8.0 9.0 0.00 0.00 0.00 92 1015.6
20260904064534 80 137 8.0 9.0 0.00 0.00 0.00 91 1015.7
20260904063529 80 138 8.0 9.0 0.00 0.00 0.00 90 1015.8
20260904062525 81 136 8.0 9.0 0.00 0.00 0.00 89 1016.0
20260904061519 81 139 8.0 10.0 0.00 0.00 0.00 89 1016.1
20260904060535 81 141 8.0 9.0 0.00 0.00 0.00 90 1016.2
20260904055532 81 137 8.0 9.0 0.00 0.00 0.00 90 1016.4
20260904054525 81 136 8.0 9.0 0.00 0.00 0.00 89 1016.5
20260904053520 81 138 8.0 9.0 0.00 0.00 0.00 89 1016.7
20260904052535 81 138 8.0 10.0 0.00 0.00 0.00 90 1016.8
20260904051530 81 139 8.0 10.0 0.00 0.00 0.00 89 1016.9
20260904050525 81 137 8.0 9.0 0.00 0.00 0.00 88 1017.0
20260904045520 81 140 8.0 10.0 0.00 0.00 0.00 88 1017.1
20260904044535 81 140 9.0 10.0 0.00 0.00 0.00 89 1017.0
20260904043530 81 141 8.0 10.0 0.00 0.00 0.00 89 1017.1
20260904042525 81 136 8.0 9.0 0.00 0.00 0.00 89 1017.2
20260904041521 81 136 8.0 9.0 0.00 0.00 0.00 89 1017.2
20260904040536 81 137 8.0 10.0 0.00 0.00 0.00 89 1017.2
20260904035531 81 135 8.0 9.0 0.00 0.00 0.00 88 1017.3
20260904034526 81 140 8.0 10.0 0.00 0.00 0.00 88 1017.3
20260904033521 81 140 8.0 9.0 0.00 0.00 0.00 88 1017.3
20260904032516 81 143 9.0 11.0 0.00 0.00 0.00 89 1017.2
20260904031532 81 139 8.0 10.0 0.00 0.00 0.00 89 1017.3
20260904030527 81 138 8.0 10.0 0.00 0.00 0.00 88 1017.3
20260904025522 81 142 8.0 11.0 0.00 0.00 0.00 88 1017.3
20260904024517 81 139 8.0 10.0 0.00 0.00 0.00 87 1017.4
20260904023532 81 140 9.0 10.0 0.00 0.00 0.00 87 1017.4
20260904022527 81 137 8.0 10.0 0.00 0.00 0.00 87 1017.5
20260904021522 81 138 8.0 9.0 0.00 0.00 0.00 87 1017.5
20260904020518 81 139 8.0 9.0 0.00 0.00 0.00 87 1017.3
20260904015532 81 142 8.0 11.0 0.00 0.00 0.00 87 1017.2
20260904014528 81 138 8.0 9.0 0.00 0.00 0.00 86 1017.1
20260904013523 82 139 8.0 9.0 0.00 0.00 0.00 85 1017.0
20260904012518 82 142 9.0 10.0 0.00 0.00 0.00 85 1016.9
20260904011534 82 140 8.0 10.0 0.00 0.00 0.00 86 1016.7
20260904010529 82 142 8.0 12.0 0.00 0.00 0.00 86 1016.6
20260904005524 82 140 8.0 10.0 0.00 0.00 0.00 86 1016.6
20260904004519 82 143 8.0 9.0 0.00 0.00 0.00 85 1016.3
20260904003535 82 143 9.0 10.0 0.00 0.00 0.00 85 1016.1
20260904002529 82 141 9.0 10.0 0.00 0.00 0.00 84 1016.0
20260904001525 82 143 8.0 10.0 0.00 0.00 0.00 84 1016.1
20260904000520 82 140 8.0 10.0 0.00 0.00 0.00 85 1016.0
20260903235535 83 145 9.0 10.0 0.00 0.00 0.00 86 1015.9
20260903234530 83 142 8.0 10.0 0.00 0.00 0.00 86 1015.7
20260903233525 83 139 8.0 10.0 0.00 0.00 0.00 85 1015.9
20260903232520 83 137 8.0 9.0 0.00 0.00 0.00 84 1016.0
20260903231535 83 144 8.0 10.0 0.00 0.00 0.00 84 1016.2
20260903230530 83 142 8.0 10.0 0.00 0.00 0.00 83 1016.4
20260903225526 84 144 8.0 11.0 0.00 0.00 0.00 83 1016.4
20260903224520 84 146 8.0 11.0 0.00 0.00 0.00 82 1016.4
20260903223536 84 148 8.0 10.0 0.00 0.00 0.00 82 1016.3
20260903222531 84 149 8.0 10.0 0.00 0.00 0.00 82 1016.4
20260903221526 84 143 8.0 10.0 0.00 0.00 0.00 82 1016.3
20260903220522 84 145 8.0 11.0 0.00 0.00 0.00 81 1016.3
20260903215517 84 149 8.0 10.0 0.00 0.00 0.00 81 1016.3
20260903214532 85 150 8.0 10.0 0.00 0.00 0.00 81 1016.4
20260903213527 85 149 8.0 11.0 0.00 0.00 0.00 80 1016.4
20260903212522 85 147 8.0 11.0 0.00 0.00 0.00 81 1016.4
20260903211517 85 124 4.0 9.0 0.00 0.00 0.00 80 1016.4
20260903210533 85 110 4.0 6.0 0.00 0.00 0.00 80 1016.5
20260903205528 86 130 4.0 7.0 0.00 0.00 0.00 78 1016.4
20260903204523 86 123 4.0 6.0 0.00 0.00 0.00 77 1016.5
20260903203518 86 115 4.0 7.0 0.00 0.00 0.00 77 1016.5
20260903202533 86 131 3.0 5.0 0.00 0.00 0.00 76 1016.7
20260903201528 87 108 4.0 7.0 0.00 0.00 0.00 74 1016.9
20260903200524 88 119 4.0 6.0 0.00 0.00 0.00 73 1016.8
20260903195519 88 112 4.0 7.0 0.00 0.00 0.00 70 1016.8
20260903194534 87 128 3.0 6.0 0.00 0.00 0.00 70 1016.7
20260903193529 89 119 4.0 8.0 0.00 0.00 0.00 69 1017.0
20260903192529 88 109 5.0 8.0 0.00 0.00 0.00 69 1017.1
20260903191519 88 133 3.0 6.0 0.00 0.00 0.00 68 1017.0
20260903190534 88 131 3.0 6.0 0.00 0.00 0.00 68 1017.1
20260903185530 88 130 4.0 7.0 0.00 0.00 0.00 68 1017.3
20260903184525 88 128 4.0 9.0 0.00 0.00 0.00 70 1017.3
20260903183520 88 121 4.0 6.0 0.00 0.00 0.00 69 1017.5
20260903182535 88 102 4.0 6.0 0.00 0.00 0.00 73 1017.4
20260903181530 88 130 5.0 9.0 0.00 0.00 0.00 74 1017.5
20260903180525 87 162 7.0 11.0 0.00 0.00 0.00 74 1017.6
20260903175520 88 165 7.0 11.0 0.00 0.00 0.00 74 1017.6
20260903174537 88 149 8.0 11.0 0.00 0.00 0.00 72 1017.6
20260903173531 88 150 8.0 10.0 0.00 0.00 0.00 73 1017.7
20260903172526 88 163 7.0 11.0 0.00 0.00 0.00 73 1017.7
20260903171522 88 155 8.0 11.0 0.00 0.00 0.00 73 1017.8
20260903170517 88 141 9.0 11.0 0.00 0.00 0.00 73 1017.8
20260903165533 88 160 7.0 10.0 0.00 0.00 0.00 73 1018.0
20260903164528 88 157 7.0 10.0 0.00 0.00 0.00 72 1017.9
20260903163523 88 157 7.0 11.0 0.00 0.00 0.00 73 1017.9
20260903162518 88 157 8.0 11.0 0.00 0.00 0.00 71 1017.9
20260903161533 87 158 7.0 9.0 0.00 0.00 0.00 74 1018.1
20260903160528 88 153 8.0 10.0 0.00 0.00 0.00 74 1018.2
20260903155523 88 156 8.0 11.0 0.00 0.00 0.00 74 1018.3
20260903154518 88 148 8.0 9.0 0.00 0.00 0.00 74 1018.4
20260903153534 88 151 8.0 11.0 0.00 0.00 0.00 76 1018.4
20260903152529 87 149 8.0 11.0 0.00 0.00 0.00 76 1018.3
20260903151524 87 155 7.0 10.0 0.00 0.00 0.00 76 1018.2
20260903150519 86 195 6.0 9.0 0.00 0.00 0.00 79 1018.2
20260903145534 87 223 2.0 5.0 0.00 0.00 0.00 77 1018.1
20260903144530 87 219 3.0 5.0 0.00 0.00 0.00 75 1018.0
20260903143525 87 235 1.0 2.0 0.00 0.00 0.00 76 1018.0
20260903142520 87 208 1.0 2.0 0.00 0.00 0.00 75 1018.1
20260903141535 86 183 4.0 6.0 0.00 0.00 0.00 78 1017.9
20260903140530 86 186 5.0 6.0 0.00 0.00 0.00 79 1017.9
20260903135525 86 190 5.0 6.0 0.00 0.00 0.00 79 1017.8
20260903134520 85 189 4.0 6.0 0.00 0.00 0.00 82 1017.8
20260903133536 84 182 5.0 6.0 0.00 0.00 0.00 84 1017.8
20260903132531 83 185 4.0 6.0 0.00 0.00 0.00 85 1017.8
20260903131526 82 179 4.0 8.0 0.00 0.00 0.00 89 1017.8
20260903130521 81 181 4.0 7.0 0.00 0.00 0.00 92 1018.0
20260903125536 79 177 4.0 6.0 0.00 0.00 0.00 97 1018.1
20260903124531 78 185 3.0 5.0 0.00 0.00 0.00 97 1018.1
20260903123526 78 185 5.0 5.0 0.00 0.00 0.00 97 1018.0
20260903122521 77 181 5.0 5.0 0.00 0.00 0.00 97 1018.0
20260903121516 77 182 5.0 5.0 0.00 0.00 0.00 97 1018.0
20260903120532 76 185 5.0 6.0 0.00 0.00 0.00 97 1018.1
20260903115527 76 178 5.0 6.0 0.00 0.00 0.00 97 1018.0
20260903114522 76 184 4.0 5.0 0.00 0.00 0.00 97 1017.9
20260903113517 75 182 4.0 5.0 0.00 0.00 0.00 97 1017.8
20260903112533 75 182 5.0 5.0 0.00 0.00 0.00 97 1017.7
20260903111528 75 181 5.0 6.0 0.00 0.00 0.00 97 1017.4
20260903110523 75 181 4.0 5.0 0.00 0.00 0.00 97 1017.3
20260903105518 75 180 5.0 5.0 0.00 0.00 0.00 97 1017.2
20260903104533 75 179 4.0 5.0 0.00 0.00 0.00 97 1017.1
20260903103529 75 180 5.0 6.0 0.00 0.00 0.00 97 1017.0